Location: Laguemie
(45.2426°N, 1.7810°E)
Time: 10:21:14
(UTC+00:00)

Daily predictions for brighter satellites

Satellite Brightness Start Highest point End
(mag) Time Altitude Azimuth Time Altitude Azimuth Time Altitude Azimuth
Cosmos 1842 Rocket 3.7 16:33:59 10° S 16:38:22 63° E 16:42:49 10° NNE
Okean 3 Rocket 4.2 16:34:14 10° NNW 16:38:42 64° W 16:43:05 10° S
SL-08 R/B 3.4 16:41:27 10° NNE 16:46:12 87° WNW 16:50:50 10° SSW
Cosmos 2084 3.5 16:46:30 10° NNW 16:50:45 59° NE 16:55:09 10° SE
Cosmos 1656 3.7 16:46:00 10° NNW 16:51:34 88° ENE 16:57:11 10° SSE
FengYun 1-2 T 4.2 16:48:09 10° SSE 16:53:41 68° ENE 16:59:12 10° N
H-2A R/B 2.8 16:50:19 10° SE 16:54:46 30° ENE 16:59:09 10° N
Cosmos 2034 Rocket 4.0 16:49:02 10° S 16:55:09 73° E 17:01:18 10° NNE
ERBS 4.2 16:54:18 10° WNW 16:56:44 20° NNW 16:59:12 10° NNE
Cosmos 1666 4.4 16:56:59 10° NE 16:58:43 13° ENE 17:00:27 10° E
USA 306 4.3 16:56:38 10° WNW 17:00:15 26° N 17:03:44 11° NE
Cosmos 1697 Rocket 2.7 16:57:21 10° NNW 17:02:53 57° ENE 17:08:24 10° SE
USA 267 3.4 16:58:38 10° NE 17:05:11 76° NW 17:11:42 10° WSW
Cosmos 2369 4.1 17:00:44 10° NNW 17:06:10 42° NE 17:11:34 10° SE
Cosmos 1980 Rocket 2.8 17:01:26 10° NNW 17:06:36 34° NE 17:11:42 10° ESE
Cosmos 1763 Rocket 3.4 17:01:52 10° SSW 17:06:55 75° ESE 17:12:02 10° NNE
Cosmos 1939 Rocket 2.8 17:04:15 10° SSE 17:08:21 79° ENE 17:12:27 10° N
COSMO-SKYMED 1 3.9 17:05:16 10° NE 17:08:35 21° E 17:11:52 10° SE
SL-24 R/B - RUBIN 2 4.3 17:07:08 10° NNW 17:11:17 33° NE 17:15:14 10° ESE
Meteor 1-25 Rocket 4.2 17:06:28 10° N 17:12:02 69° ENE 17:17:37 10° SSE
Cosmos 841 Rocket 4.0 17:07:46 10° SSE 17:12:28 37° ESE 17:17:12 10° NE
Cosmos 1812 4.0 17:11:36 10° SE 17:14:33 21° E 17:16:31 15° NE
Cosmos 1937 Rocket 3.6 17:10:45 10° NNW 17:16:01 57° ENE 17:21:14 10° SE
SL-16 R/B 3.7 17:12:49 10° N 17:16:04 15° NE 17:17:26 14° ENE
Cosmos 1634 Rocket 4.2 17:10:48 10° SSE 17:16:52 51° E 17:22:58 10° NNE
USA 307 4.3 17:15:03 10° WNW 17:18:40 25° N 17:21:20 15° NE
Cosmos 1633 Rocket 4.1 17:15:37 10° NNE 17:19:07 23° ENE 17:22:36 10° SE
Cosmos 2082 Rocket 2.8 17:14:46 10° S 17:19:56 38° ESE 17:24:27 13° NE
USA 229 DEB 4.0 17:13:12 10° NW 17:20:35 88° NE 17:28:26 10° SE
USA 229 4.0 17:13:17 10° NW 17:20:41 87° NE 17:28:31 10° SE
NOAA 6 4.1 17:16:31 10° SSE 17:21:40 87° WSW 17:26:50 10° NNW
Cosmos 990 Rocket 4.4 17:19:24 10° NNW 17:24:34 67° WSW 17:29:41 10° S
Cosmos 2026 Rocket 3.9 17:18:43 10° N 17:24:50 65° E 17:30:51 10° SSE
CZ-4B DEB 4.2 17:20:44 10° SSE 17:26:15 80° ENE 17:31:46 10° NNW
CORIOLIS 4.2 17:20:58 10° SSE 17:26:21 89° W 17:31:49 10° NNW
Cosmos 2195 Rocket 4.4 17:21:54 10° N 17:28:05 80° E 17:34:18 10° S
USA 276 3.2 17:26:17 10° WNW 17:29:17 43° SSW 17:32:16 10° SE
Okean O Rocket 2.3 17:25:37 10° SE 17:29:35 33° ENE 17:33:34 10° N
Cosmos 372 Rocket 4.2 17:25:13 10° NNW 17:30:19 49° ENE 17:35:23 10° SE
Cosmos 1602 3.6 17:26:44 10° N 17:30:37 83° E 17:34:28 10° S
Cosmos 2278 4.2 17:25:18 10° NNW 17:30:37 38° NE 17:35:52 10° ESE
ATLAS CENTAUR R/B 4.1 17:31:21 10° NW 17:32:42 11° NNW 17:34:04 10° N
Cosmos 1743 Rocket 4.1 17:28:27 10° NNW 17:32:43 60° W 17:36:58 10° S
Cosmos 1782 2.7 17:31:24 10° S 17:35:21 66° E 17:39:19 10° NNE
Cosmos 1151 Rocket 3.6 17:31:26 10° SSE 17:35:21 36° E 17:38:08 17° NE
Meteor 2-14 Rocket 4.3 17:30:55 10° N 17:37:03 74° E 17:43:07 10° SSE
COSMOS 2406 3.2 17:31:45 10° SSW 17:37:30 84° ESE 17:43:05 11° NNE
USA 234 3.4 17:32:00 10° SE 17:38:33 76° SW 17:45:06 10° NW
COSMOS 2455 2.9 17:33:22 10° SSW 17:39:17 63° ESE 17:43:55 17° NE
USA 308 4.3 17:37:45 10° WNW 17:41:17 25° N 17:42:51 20° NNE
ARGOS 3.3 17:38:02 10° SE 17:43:14 49° ENE 17:48:27 10° N
Cosmos 1833 Rocket 3.0 17:38:29 10° SW 17:44:04 69° WNW 17:49:44 10° NNE
Cosmos 1666 Rocket 3.7 17:39:52 10° N 17:44:12 48° ENE 17:48:27 10° SSE
ISS -3.5 17:46:17 10° NW 17:49:37 50° NNE 17:50:10 44° ENE
Cosmos 1328 Rocket 4.1 17:45:37 10° SSE 17:49:41 37° E 17:50:52 31° ENE
NOSS 2-2 (D) 4.3 17:45:21 10° NW 17:50:34 73° NE 17:57:55 10° SE
CZ-2D R/B 3.4 17:47:04 10° S 17:50:53 73° WSW 17:54:43 10° NNW
NOSS 2-2 (E) 4.4 17:45:45 10° NW 17:51:10 86° NE 17:58:49 10° SE
PAYLOAD B 4.4 17:47:40 10° SSE 17:53:16 80° WSW 17:58:55 10° NNW
CZ-4 R/B 4.5 17:50:00 10° SSE 17:54:00 52° ENE 17:58:01 10° N
Lacrosse 5 rocket 2.5 17:53:18 10° NNW 17:56:30 25° NNE 17:56:30 25° NNE
SKYMED 2 3.5 17:53:44 18° NNE 17:56:54 65° ESE 18:01:12 10° S
Meteor 2-21 Rocket 4.3 17:52:41 10° N 17:58:50 81° E 18:04:54 10° S
Cosmos 1570 Rocket 4.1 17:54:46 10° S 17:59:50 52° ESE 18:02:05 31° NE
CZ-4B R/B 3.1 17:54:44 10° SSE 18:00:10 84° ENE 18:05:34 10° NNW
ATLAS CENTAUR R/B 3.1 17:51:42 10° WSW 18:01:05 61° NW 18:03:22 28° NNE
Landsat 5 3.5 18:00:26 42° ENE 18:01:14 49° E 18:05:07 10° S
SL-08 RB Rocket 3.9 17:58:34 10° SE 18:03:02 49° ENE 18:07:30 10° N
Cosmos 540 Rocket 3.9 17:58:45 10° SSW 18:03:48 61° WNW 18:08:25 13° NNE
GEOS 3 Rocket 3.9 18:02:08 34° E 18:03:50 45° NE 18:08:45 10° NNW
Cosmos 1500 3.7 18:01:13 10° NNW 18:04:54 58° W 18:08:33 10° S
CZ-2C R/B 2.4 17:59:42 10° NNE 18:04:55 77° ESE 18:10:05 10° S
Cosmos 1814 Rocket 3.9 18:02:20 10° S 18:07:32 70° ESE 18:10:08 30° NNE
Cosmos 1818 3.9 18:03:00 10° NNW 18:08:14 42° NE 18:09:03 39° ENE
Meteor 1-11 Rocket 4.3 18:03:25 10° N 18:07:51 34° NE 18:07:51 34° NE
USA 305 4.2 18:05:10 10° NW 18:08:45 26° N 18:08:56 26° NNE
Cosmos 44 Rocket 3.8 18:07:21 10° NNW 18:11:47 39° NE 18:11:47 39° NE
CZ-4C R/B 2.9 18:05:15 10° NW 18:12:28 72° NE 18:20:10 13° SE
Sich 1 4.2 18:09:33 10° NNW 18:13:38 44° W 18:17:43 10° SSW
Cosmos 1900 4.4 18:13:33 10° SSW 18:18:14 50° ESE 18:18:19 50° ESE
Feng Yun 1-1 Rocket 4.3 18:13:10 10° SSE 18:19:01 66° ENE 18:24:51 10° N
Cosmos 2360 Rocket 3.9 18:20:19 10° N 18:22:13 17° NNE 18:22:13 17° NNE
deb Chang Zheng 4 4.3 18:23:09 10° S 18:27:21 54° WSW 18:31:37 10° NNW
Cosmos 2208 Rocket 3.9 18:27:09 10° SSW 18:32:31 80° ESE 18:33:46 54° NE
H-2A R/B 3.5 18:29:17 10° SSW 18:34:05 37° W 18:38:48 10° NNW
Cosmos 1666 3.6 18:30:57 10° NNW 18:34:33 47° W 18:38:06 10° SSW
Cosmos 2322 Rocket 3.3 18:38:46 10° NNW 18:41:55 29° N 18:41:55 29° N
COSMO-SKYMED 1 3.8 18:42:21 20° NNW 18:44:53 40° WNW 18:48:56 10° SW
USA 267 4.2 18:45:34 30° NNE 18:47:40 37° NNW 18:53:33 10° W
Cosmos 1980 Rocket 3.4 18:45:24 10° NW 18:50:40 41° WSW 18:55:53 10° S
Cosmos 2266 Rocket 3.9 18:45:15 10° N 18:51:39 89° W 18:58:05 10° S
SL-16 R/B 2.9 18:55:34 10° NNW 18:59:21 42° N 18:59:21 42° N
Meteor 2-15 Rocket 4.4 18:56:00 10° S 19:02:09 84° W 19:03:21 60° N
Cosmos 2082 Rocket 3.4 18:58:46 10° WSW 19:04:00 37° NW 19:06:20 26° N
Okean O Rocket 3.7 19:02:10 10° SSW 19:05:56 27° W 19:09:44 10° NW
Cosmos 2333 Rocket 4.5 19:05:37 10° N 19:06:11 12° N 19:06:11 12° N
ATLAS 2AS CENTAUR R/B 4.4 19:16:30 10° NNW 19:20:53 20° N 19:20:53 20° N
COSMOS 2455 4.4 19:20:27 10° WSW 19:25:39 29° NW 19:27:05 26° NNW
Lacrosse 5 rocket 4.4 19:32:02 10° NW 19:32:06 10° NW 19:32:06 10° NW
CZ-4C R/B 4.4 19:54:17 10° NW 20:00:53 33° WSW 20:05:34 20° SSW
